Location: *
(45.1333°S, 169.6333°W)
Time: 19:01:41
(UTC+00:00)

STARLINK-4018 - Pass Details

Date: 26 May 2022
Orbit: 425 x 427 km, 53.2° (Epoch: 06 July)

Event Time Altitude Azimuth Distance (km) Brightness Sun altitude
Rises 04:41:06 0° 287° (WNW) 2,257 9.2 -9.0°
Reaches altitude 10° 04:43:07 10° 281° (W) 1,462 7.4 -9.4°
Maximum altitude 04:46:22 47° 205° (SSW) 582 3.8 -9.9°
Enters shadow 04:49:18 14° 133° (SE) 1,355 5.1 -10.4°
